Time,TemperatureF,DewpointF,PressureIn,WindDirection,WindDirectionDegrees,WindSpeedMPH,WindSpeedGustMPH,Humidity,HourlyPrecipIn,Conditions,Clouds,dailyrainin,SolarRadiationWatts/m^2,SoftwareType,DateUTC
2013-01-16 00:02:00,26.0,2.0,-100.00,North,2,4.0,7.0,34,0.00,,,0.00,1.000000,,2013-01-16 07:02:00,
2013-01-16 00:33:00,26.0,2.0,-100.00,WSW,255,2.0,7.0,35,0.00,,,0.00,1.000000,,2013-01-16 07:33:00,
2013-01-16 00:42:00,26.0,2.0,-100.00,WSW,255,2.0,7.0,35,0.00,,,0.00,1.000000,,2013-01-16 07:42:00,
2013-01-16 00:52:00,26.0,2.0,-100.00,WSW,255,2.0,7.0,35,0.00,,,0.00,1.000000,,2013-01-16 07:52:00,
2013-01-16 01:02:00,26.0,2.0,-100.00,WSW,255,2.0,7.0,35,0.00,,,0.00,1.000000,,2013-01-16 08:02:00,
2013-01-16 01:32:00,24.0,5.0,-100.00,NE,51,3.0,6.0,43,0.00,,,0.00,0.000000,,2013-01-16 08:32:00,
2013-01-16 01:42:00,24.0,5.0,-100.00,NE,51,3.0,6.0,43,0.00,,,0.00,0.000000,,2013-01-16 08:42:00,
2013-01-16 01:52:00,24.0,5.0,-100.00,NE,51,3.0,6.0,43,0.00,,,0.00,0.000000,,2013-01-16 08:52:00,
2013-01-16 02:02:00,24.0,5.0,-100.00,NE,51,3.0,6.0,43,0.00,,,0.00,0.000000,,2013-01-16 09:02:00,
2013-01-16 02:33:00,25.0,6.0,-100.00,NNE,15,3.0,5.0,44,0.00,,,0.00,1.000000,,2013-01-16 09:33:00,
2013-01-16 02:43:00,25.0,6.0,-100.00,NNE,15,3.0,5.0,44,0.00,,,0.00,1.000000,,2013-01-16 09:43:00,
2013-01-16 02:52:00,25.0,6.0,-100.00,NNE,15,3.0,5.0,44,0.00,,,0.00,1.000000,,2013-01-16 09:52:00,
2013-01-16 03:02:00,25.0,6.0,-100.00,NNE,15,3.0,5.0,44,0.00,,,0.00,1.000000,,2013-01-16 10:02:00,
2013-01-16 03:32:00,22.0,4.0,-100.00,North,354,3.0,4.0,45,0.00,,,0.00,1.000000,,2013-01-16 10:32:00,
2013-01-16 03:43:00,22.0,4.0,-100.00,North,354,3.0,4.0,45,0.00,,,0.00,1.000000,,2013-01-16 10:43:00,
2013-01-16 03:52:00,22.0,4.0,-100.00,North,354,3.0,4.0,45,0.00,,,0.00,1.000000,,2013-01-16 10:52:00,
2013-01-16 04:02:00,22.0,4.0,-100.00,North,354,3.0,4.0,45,0.00,,,0.00,1.000000,,2013-01-16 11:02:00,
2013-01-16 04:33:00,21.0,6.0,-100.00,NNE,25,2.0,4.0,52,0.00,,,0.00,1.000000,,2013-01-16 11:33:00,
2013-01-16 04:43:00,21.0,6.0,-100.00,NNE,25,2.0,4.0,52,0.00,,,0.00,1.000000,,2013-01-16 11:43:00,
2013-01-16 04:53:00,21.0,6.0,-100.00,NNE,25,2.0,4.0,52,0.00,,,0.00,1.000000,,2013-01-16 11:53:00,
2013-01-16 05:02:00,21.0,6.0,-100.00,NNE,25,2.0,4.0,52,0.00,,,0.00,1.000000,,2013-01-16 12:02:00,
2013-01-16 05:33:00,23.0,7.0,-100.00,NNE,20,2.0,6.0,49,0.00,,,0.00,1.000000,,2013-01-16 12:33:00,
2013-01-16 05:43:00,23.0,7.0,-100.00,NNE,20,2.0,6.0,49,0.00,,,0.00,1.000000,,2013-01-16 12:43:00,
2013-01-16 05:53:00,23.0,7.0,-100.00,NNE,20,2.0,6.0,49,0.00,,,0.00,1.000000,,2013-01-16 12:53:00,
2013-01-16 06:02:00,23.0,7.0,-100.00,NNE,20,2.0,6.0,49,0.00,,,0.00,1.000000,,2013-01-16 13:02:00,
2013-01-16 06:33:00,23.0,7.0,-100.00,West,277,2.0,6.0,49,0.00,,,0.00,1.000000,,2013-01-16 13:33:00,
2013-01-16 06:43:00,23.0,7.0,-100.00,West,277,2.0,6.0,49,0.00,,,0.00,1.000000,,2013-01-16 13:43:00,
2013-01-16 06:53:00,23.0,7.0,-100.00,West,277,2.0,6.0,49,0.00,,,0.00,1.000000,,2013-01-16 13:53:00,
2013-01-16 07:02:00,23.0,7.0,-100.00,West,277,2.0,6.0,49,0.00,,,0.00,1.000000,,2013-01-16 14:02:00,
2013-01-16 07:33:00,27.0,5.0,-100.00,NNE,30,4.0,7.0,39,0.00,,,0.00,1.000000,,2013-01-16 14:33:00,
2013-01-16 07:43:00,27.0,5.0,-100.00,NNE,30,4.0,7.0,39,0.00,,,0.00,1.000000,,2013-01-16 14:43:00,
2013-01-16 07:53:00,27.0,5.0,-100.00,NNE,30,4.0,7.0,39,0.00,,,0.00,1.000000,,2013-01-16 14:53:00,
2013-01-16 08:02:00,27.0,5.0,-100.00,NNE,30,4.0,7.0,39,0.00,,,0.00,1.000000,,2013-01-16 15:02:00,
2013-01-16 08:33:00,33.0,8.0,-100.00,North,352,4.0,7.0,34,0.00,,,0.00,15.000000,,2013-01-16 15:33:00,
2013-01-16 08:43:00,33.0,8.0,-100.00,North,352,4.0,7.0,34,0.00,,,0.00,15.000000,,2013-01-16 15:43:00,
2013-01-16 08:53:00,33.0,8.0,-100.00,North,352,4.0,7.0,34,0.00,,,0.00,15.000000,,2013-01-16 15:53:00,
2013-01-16 09:03:00,33.0,8.0,-100.00,North,352,4.0,7.0,34,0.00,,,0.00,15.000000,,2013-01-16 16:03:00,
2013-01-16 09:33:00,40.0,10.0,-100.00,NW,304,2.0,5.0,28,0.00,,,0.00,189.000000,,2013-01-16 16:33:00,
2013-01-16 09:43:00,40.0,10.0,-100.00,NW,304,2.0,5.0,28,0.00,,,0.00,189.000000,,2013-01-16 16:43:00,
2013-01-16 09:53:00,40.0,10.0,-100.00,NW,304,2.0,5.0,28,0.00,,,0.00,189.000000,,2013-01-16 16:53:00,
2013-01-16 10:02:00,40.0,10.0,-100.00,NW,304,2.0,5.0,28,0.00,,,0.00,189.000000,,2013-01-16 17:02:00,
2013-01-16 10:33:00,45.0,3.0,-100.00,WNW,284,5.0,8.0,17,0.00,,,0.00,384.000000,,2013-01-16 17:33:00,
2013-01-16 10:44:00,45.0,3.0,-100.00,WNW,284,5.0,8.0,17,0.00,,,0.00,384.000000,,2013-01-16 17:44:00,
2013-01-16 10:53:00,45.0,3.0,-100.00,WNW,284,5.0,8.0,17,0.00,,,0.00,384.000000,,2013-01-16 17:53:00,
2013-01-16 11:02:00,45.0,3.0,-100.00,WNW,284,5.0,8.0,17,0.00,,,0.00,384.000000,,2013-01-16 18:02:00,
2013-01-16 11:33:00,50.0,3.0,-100.00,SSE,160,4.0,7.0,14,0.00,,,0.00,530.000000,,2013-01-16 18:33:00,
2013-01-16 11:43:00,50.0,3.0,-100.00,SSE,160,4.0,7.0,14,0.00,,,0.00,530.000000,,2013-01-16 18:43:00,
2013-01-16 11:53:00,50.0,3.0,-100.00,SSE,160,4.0,7.0,14,0.00,,,0.00,530.000000,,2013-01-16 18:53:00,
2013-01-16 12:02:00,50.0,3.0,-100.00,SSE,160,4.0,7.0,14,0.00,,,0.00,530.000000,,2013-01-16 19:02:00,
2013-01-16 12:33:00,54.0,4.0,-100.00,WNW,293,5.0,8.0,13,0.00,,,0.00,616.000000,,2013-01-16 19:33:00,
2013-01-16 12:43:00,54.0,4.0,-100.00,WNW,293,5.0,8.0,13,0.00,,,0.00,616.000000,,2013-01-16 19:43:00,
2013-01-16 12:53:00,54.0,4.0,-100.00,WNW,293,5.0,8.0,13,0.00,,,0.00,616.000000,,2013-01-16 19:53:00,
2013-01-16 13:02:00,54.0,4.0,-100.00,WNW,293,5.0,8.0,13,0.00,,,0.00,616.000000,,2013-01-16 20:02:00,
2013-01-16 13:33:00,58.0,6.0,-100.00,West,270,5.0,10.0,12,0.00,,,0.00,658.000000,,2013-01-16 20:33:00,
2013-01-16 13:43:00,58.0,6.0,-100.00,West,270,5.0,10.0,12,0.00,,,0.00,658.000000,,2013-01-16 20:43:00,
2013-01-16 13:53:00,58.0,6.0,-100.00,West,270,5.0,10.0,12,0.00,,,0.00,658.000000,,2013-01-16 20:53:00,
2013-01-16 14:02:00,58.0,6.0,-100.00,West,270,5.0,10.0,12,0.00,,,0.00,658.000000,,2013-01-16 21:02:00,
2013-01-16 14:33:00,63.0,8.0,-100.00,WNW,292,5.0,10.0,11,0.00,,,0.00,627.000000,,2013-01-16 21:33:00,
2013-01-16 14:43:00,63.0,8.0,-100.00,WNW,292,5.0,10.0,11,0.00,,,0.00,627.000000,,2013-01-16 21:43:00,
2013-01-16 14:53:00,63.0,8.0,-100.00,WNW,292,5.0,10.0,11,0.00,,,0.00,627.000000,,2013-01-16 21:53:00,
2013-01-16 15:02:00,63.0,8.0,-100.00,WNW,292,5.0,10.0,11,0.00,,,0.00,627.000000,,2013-01-16 22:02:00,
2013-01-16 15:33:00,65.0,7.0,-100.00,SSW,212,5.0,16.0,10,0.00,,,0.00,531.000000,,2013-01-16 22:33:00,
2013-01-16 15:43:00,65.0,7.0,-100.00,SSW,212,5.0,16.0,10,0.00,,,0.00,531.000000,,2013-01-16 22:43:00,
2013-01-16 15:52:00,65.0,7.0,-100.00,SSW,212,5.0,16.0,10,0.00,,,0.00,531.000000,,2013-01-16 22:52:00,
2013-01-16 16:02:00,65.0,7.0,-100.00,SSW,212,5.0,16.0,10,0.00,,,0.00,531.000000,,2013-01-16 23:02:00,
2013-01-16 16:33:00,64.0,6.0,-100.00,SSE,158,7.0,12.0,10,0.00,,,0.00,379.000000,,2013-01-16 23:33:00,
2013-01-16 16:43:00,64.0,6.0,-100.00,SSE,158,7.0,12.0,10,0.00,,,0.00,379.000000,,2013-01-16 23:43:00,
2013-01-16 16:53:00,64.0,6.0,-100.00,SSE,158,7.0,12.0,10,0.00,,,0.00,379.000000,,2013-01-16 23:53:00,
2013-01-16 17:02:00,64.0,6.0,-100.00,SSE,158,7.0,12.0,10,0.00,,,0.00,379.000000,,2013-01-17 00:02:00,
2013-01-16 17:33:00,63.0,6.0,-100.00,WSW,246,4.0,10.0,10,0.00,,,0.00,194.000000,,2013-01-17 00:33:00,
2013-01-16 17:42:00,63.0,6.0,-100.00,WSW,246,4.0,10.0,10,0.00,,,0.00,194.000000,,2013-01-17 00:42:00,
2013-01-16 17:52:00,63.0,6.0,-100.00,WSW,246,4.0,10.0,10,0.00,,,0.00,194.000000,,2013-01-17 00:52:00,
2013-01-16 18:02:00,63.0,6.0,-100.00,WSW,246,4.0,10.0,10,0.00,,,0.00,194.000000,,2013-01-17 01:02:00,
2013-01-16 18:33:00,51.0,5.0,-100.00,NW,319,3.0,9.0,15,0.00,,,0.00,23.000000,,2013-01-17 01:33:00,
2013-01-16 18:52:00,51.0,5.0,-100.00,NW,319,3.0,9.0,15,0.00,,,0.00,23.000000,,2013-01-17 01:52:00,
2013-01-16 19:02:00,51.0,5.0,-100.00,NW,319,3.0,9.0,15,0.00,,,0.00,23.000000,,2013-01-17 02:02:00,
2013-01-16 19:32:00,45.0,10.0,-100.00,NNE,13,3.0,6.0,24,0.00,,,0.00,1.000000,,2013-01-17 02:32:00,
2013-01-16 19:43:00,45.0,10.0,-100.00,NNE,13,3.0,6.0,24,0.00,,,0.00,1.000000,,2013-01-17 02:43:00,
2013-01-16 19:52:00,45.0,10.0,-100.00,NNE,13,3.0,6.0,24,0.00,,,0.00,1.000000,,2013-01-17 02:52:00,
2013-01-16 20:33:00,43.0,11.0,-100.00,NNE,28,5.0,6.0,27,0.00,,,-99.99,1.000000,,2013-01-17 03:33:00,
2013-01-16 20:43:00,43.0,11.0,-100.00,NNE,28,5.0,6.0,27,0.00,,,-99.99,1.000000,,2013-01-17 03:43:00,
2013-01-16 20:52:00,43.0,11.0,-100.00,NNE,28,5.0,6.0,27,0.00,,,-99.99,1.000000,,2013-01-17 03:52:00,
2013-01-16 21:33:00,40.0,12.0,-100.00,NNW,338,4.0,6.0,31,-99.99,,,0.00,1.000000,,2013-01-17 04:33:00,
2013-01-16 22:33:00,38.0,11.0,-100.00,West,271,3.0,6.0,32,-99.99,,,0.00,1.000000,,2013-01-17 05:33:00,
2013-01-16 23:02:00,38.0,11.0,-100.00,West,271,3.0,6.0,32,-99.99,,,0.00,1.000000,,2013-01-17 06:02:00,
2013-01-16 23:33:00,37.0,12.0,-100.00,NNE,18,3.0,6.0,35,0.00,,,0.00,0.000000,,2013-01-17 06:33:00,
2013-01-16 23:42:00,37.0,12.0,-100.00,NNE,18,3.0,6.0,35,0.00,,,0.00,0.000000,,2013-01-17 06:42:00,
2013-01-16 23:52:00,37.0,12.0,-100.00,NNE,18,3.0,6.0,35,0.00,,,0.00,0.000000,,2013-01-17 06:52:00,